[[{"header":{"parameterUnit":"m.s-1","parameterCategory":1,"la1":30.2992,"la2":30.254,"lo1":-89.0895,"lo2":-89.0443,"dy":0.0025,"dx":0.0025,"nx":19,"ny":19,"refTime":"2026-03-07T09:00:00:Z","depth":0,"parameterNumber":2,"parameterNumberName":"U-component_of_WINDS"},"data":[0,0,0,-0.2916,-0.2915,-0.284,-0.2839,-0.2752,-0.2751,0,0,0,0,0,0,0,0,0,0,0,-0.2944,-0.2944,-0.2916,-0.2915,-0.284,-0.2839,-0.2752,-0.2751,0,0,0,0,0,0,0,0,0,0,0,-0.2945,-0.2944,-0.2944,-0.2914,-0.284,-0.2839,-0.2752,-0.2805,0,0,0,0,0,0,0,0,0,0,-0.2877,-0.2909,-0.2944,-0.2944,-0.2914,-0.284,-0.2839,-0.2808,-0.2802,-0.279,0,-0.2781,0,-0.2765,-0.2746,-0.2746,0,0,0,-0.291,-0.2914,-0.2888,-0.2944,-0.2913,-0.284,-0.2872,-0.2805,-0.2798,-0.2782,-0.278,-0.2777,-0.2764,-0.2746,-0.2745,-0.2693,-0.2693,0,0,-0.2914,-0.2934,-0.2893,-0.2885,-0.2898,-0.2875,-0.287,-0.2801,-0.2799,-0.278,-0.2774,-0.2762,-0.2745,-0.2744,-0.2693,-0.2693,0,0,0,-0.2929,-0.2937,-0.2913,-0.2888,-0.2874,-0.2872,-0.2867,-0.2802,-0.2793,-0.2773,-0.2761,-0.2745,-0.2744,-0.2693,-0.2693,-0.2713,0,0,0,-0.2931,-0.2946,-0.2915,-0.2927,-0.2876,-0.2837,-0.287,-0.2797,-0.2789,-0.2762,-0.2745,-0.2743,-0.2693,-0.2693,-0.2712,-0.2718,0,0,0,-0.2947,-0.2948,-0.2939,-0.2928,-0.2897,-0.2838,-0.2824,-0.2795,-0.2782,-0.2746,-0.2743,-0.2693,-0.2693,-0.2712,-0.2717,-0.271,0,0,0,-0.297,-0.2957,-0.294,-0.292,-0.2897,-0.2851,-0.2825,-0.2789,-0.276,-0.2744,-0.2693,-0.2693,-0.2711,-0.2717,-0.271,-0.2708,-0.271,0,0,-0.2965,-0.2957,-0.2944,-0.2927,-0.2889,-0.2861,-0.2825,-0.2779,-0.2757,-0.2715,-0.2714,-0.2712,-0.2717,-0.271,-0.271,-0.2711,0,0,0,-0.2949,-0.294,-0.2926,-0.29,-0.2866,-0.2836,-0.2794,-0.2777,-0.2741,-0.274,-0.2707,-0.271,-0.2705,-0.2703,-0.2704,-0.2698,-0.2693,-0.2693,-0.2693,-0.297,-0.2943,-0.292,-0.2884,-0.2859,-0.2816,-0.2793,-0.2763,-0.2742,-0.2735,-0.2722,-0.2726,-0.2724,-0.2725,-0.2719,-0.2719,-0.2719,-0.2719,-0.2719,-0.296,-0.2943,-0.2916,-0.2884,-0.2856,-0.2828,-0.2786,-0.2772,-0.2741,-0.2733,-0.2727,-0.272,-0.2727,-0.2721,-0.2721,-0.272,-0.272,-0.272,-0.272,-0.2971,-0.2958,-0.2938,-0.2899,-0.2871,-0.2835,-0.2807,-0.2781,-0.2757,-0.2751,-0.2735,-0.2735,-0.2731,-0.2746,-0.2746,-0.2746,-0.2746,-0.2746,-0.2746,-0.299,-0.2967,-0.2947,-0.291,-0.289,-0.2861,-0.2818,-0.2797,-0.2768,-0.2752,-0.2751,-0.2731,-0.2733,-0.2734,-0.2746,-0.2746,-0.2746,-0.2746,-0.2746,-0.2989,-0.2985,-0.2955,-0.2935,-0.2889,-0.2864,-0.2832,-0.2793,-0.2772,-0.2759,-0.274,-0.2746,-0.2736,-0.2735,-0.2735,-0.2746,-0.2746,-0.2746,-0.2746,-0.2998,-0.2991,-0.2954,-0.2925,-0.2892,-0.2861,-0.2827,-0.2793,-0.2757,-0.2743,-0.2738,-0.2736,-0.2736,-0.2726,-0.2725,-0.2725,-0.2734,-0.2734,-0.2734,-0.2996,-0.2984,-0.2961,-0.2927,-0.2889,-0.2857,-0.2824,-0.2791,-0.2749,-0.2732,-0.2731,-0.2731,-0.2729,-0.273,-0.2712,-0.2712,-0.2711,0,0]},{"header":{"parameterUnit":"m.s-1","parameterCategory":1,"la1":30.2992,"la2":30.254,"lo1":-89.0895,"lo2":-89.0443,"dy":0.0025,"dx":0.0025,"nx":19,"ny":19,"refTime":"2026-03-07T09:00:00:Z","depth":0,"parameterNumber":3,"parameterNumberName":"V-component_of_WINDS"},"data":[0,0,0,2.7334,2.7336,2.7435,2.7436,2.7561,2.7562,0,0,0,0,0,0,0,0,0,0,0,2.7302,2.7302,2.7333,2.7336,2.7435,2.7436,2.7561,2.7562,0,0,0,0,0,0,0,0,0,0,0,2.7301,2.7302,2.7303,2.7336,2.7435,2.7436,2.7561,2.7487,0,0,0,0,0,0,0,0,0,0,2.739,2.7358,2.7302,2.7303,2.7337,2.7435,2.7436,2.7483,2.7491,2.7515,0,2.7534,0,2.755,2.7571,2.7571,0,0,0,2.7338,2.7351,2.738,2.7303,2.7338,2.7435,2.7391,2.7488,2.7497,2.7526,2.7536,2.7541,2.7552,2.7571,2.7572,2.7701,2.7701,0,0,2.7332,2.7318,2.7374,2.7386,2.7369,2.7388,2.7394,2.7493,2.7504,2.7536,2.7544,2.7554,2.7572,2.7573,2.77,2.7701,0,0,0,2.7315,2.7314,2.7341,2.7381,2.7399,2.7391,2.7398,2.7499,2.7509,2.7545,2.7556,2.7573,2.7574,2.77,2.77,2.7712,0,0,0,2.7312,2.7304,2.7339,2.7331,2.7397,2.745,2.7401,2.7502,2.7514,2.7555,2.7573,2.7576,2.7699,2.77,2.7711,2.7721,0,0,0,2.7296,2.7302,2.7316,2.733,2.7372,2.7449,2.7464,2.7505,2.7521,2.7571,2.7576,2.7699,2.77,2.7709,2.7719,2.7752,0,0,0,2.7275,2.7324,2.7316,2.7375,2.7371,2.7454,2.7464,2.7527,2.7571,2.7573,2.7699,2.77,2.7709,2.7717,2.7751,2.7779,2.7789,0,0,2.7328,2.7329,2.7366,2.7361,2.7443,2.744,2.7525,2.7579,2.7597,2.7665,2.7669,2.7711,2.7718,2.7752,2.7847,2.7855,0,0,0,2.7378,2.7404,2.7429,2.747,2.7513,2.7552,2.7594,2.7615,2.7675,2.7628,2.7732,2.7737,2.7757,2.7772,2.7778,2.7798,2.7706,2.7706,2.7706,2.7434,2.7455,2.7517,2.7551,2.7591,2.7636,2.7672,2.7708,2.7716,2.774,2.7761,2.7816,2.7833,2.7838,2.7858,2.7777,2.7777,2.7777,2.7777,2.7516,2.7557,2.7569,2.7634,2.7656,2.7711,2.7758,2.7762,2.7818,2.7802,2.7821,2.7802,2.7846,2.7865,2.7778,2.7778,2.7778,2.7777,2.7777,2.7556,2.758,2.7605,2.7669,2.7717,2.775,2.7804,2.7822,2.784,2.7858,2.7884,2.7884,2.7888,2.7869,2.7869,2.7869,2.787,2.787,2.787,2.7589,2.7617,2.7659,2.7711,2.7742,2.7785,2.7832,2.7864,2.7903,2.7913,2.7913,2.7921,2.7845,2.7827,2.7873,2.7872,2.7872,2.7872,2.7872,2.7668,2.7654,2.772,2.7751,2.7814,2.7863,2.7885,2.7948,2.7977,2.8004,2.8008,2.7948,2.7951,2.7946,2.7931,2.8001,2.8001,2.8001,2.8001,2.7704,2.7707,2.778,2.7829,2.7879,2.7907,2.7984,2.8023,2.8061,2.808,2.8073,2.8054,2.8048,2.8054,2.8047,2.8034,2.8129,2.8129,2.8129,2.7755,2.7764,2.7825,2.7861,2.7913,2.7958,2.8032,2.809,2.8129,2.8135,2.8097,2.8092,2.8062,2.8051,2.8056,2.8044,2.8019,0,0]}]]